COSMOS 1275 DEB, 12668

Orbit data source: Space-Track

COSMOS 1275 DEB, 12668 is space debris in LEO originally from a launch on Thu, 04 Jun 1981 UTC launched from the Plesetsk Missile And Space Complex (PKMTR). Debris objects in space refer to the collection of defunct objects orbiting the Earth. Examples of debris include non-operational satellites, rocket bodies, and fragments generated from explosions, collisions, or faulty payload assembly.

Loading next visibility...
Identifier
12668, 1981-053Y
Orbit
LEO
Country
Flag of CISCIS
Related business
Manufacturer
Unknown
Mission
Spacecraft
Bus & Motor
Unknown
Mass
Unknown
Launch date (UTC)
1981-06-04 (45 years ago)
Launch vehicle
Unknown
Launch site
Plesetsk Missile And Space Complex (PKMTR)
Object type
Payload
Rocket body
Debris
Shape & HBR
Unknown shape, 0.1 m
Radar Cross Section
Small (<0.1 m²)

Expand to show TLE details & history
Last TLE update: 13 hours ago

TLE from 13 hours ago
0 COSMOS 1275 DEB
1 12668U 81053Y   26023.50392736  .00001128  00000-0  70389-3 0  9990
2 12668  83.1040 193.6558 0052378 274.6449 140.0530 14.03339935265993
Epoch: 2026-01-23T12:05Z
TLE epoch observation values (Epoch: 2026-01-23T12:05:39.323Z)
Latitude
54.58994°
Longitude
-100.85679°
Altitude
920.518 km
Speed
7.382 km/s
True Right ascension
13h 33m 35s
True Declination
54° 25' 52"
Sunlit
Object was in daylight at epoch
Visualization orbit readout
Latitude
Unknown
Longitude
Unknown
Altitude
Unknown
Speed
Unknown
Apparent Right ascension
Unknown
Apparent Declination
Unknown
Sunlit
N/A
Visualization observer readout
Local Sidereal Time
02:40:49
Azimuth
Unknown
Elevation
Unknown
Doppler factor
Unknown
Orbital elements
Apogee altitude
917.369 km
Perigee altitude
841.343 km
Semi-major axis
7,257.493 km
Eccentricity
0.00524
Inclination
83.104°
RAAN
193.6558°
Arg. of periapsis
274.6449°
True anomaly
140.43645°
Mean anomaly
140.053°
Eccentric anomaly
140.24492°
Mean motion
3.51045 °/min
Orbital period
102.55 mins
BSTAR
0.00070389
Loading maneuver chart data...
Computing Atmospheric mass density...
Loading historical data...
Loading historical data...
Loading historical data...
Loading historical data...
Loading historical data...
Loading historical data...
Loading historical data...

Documentation

Showing up to 5 results
|